This is the latest recevied weather packets stored in our database for station/object KD8FRE. If no packets are shown the sender has not sent any weather packets the latest 10 day(s).
| Time | Temp. | Humidity | Pressure | Rain* | Wind** | Luminosity | Snow |
|---|---|---|---|---|---|---|---|
| 1777307726 | 18.89° C | 52% | 1017.4 hPa | 0 mm | - | 603 W/m² | - |
| 1777307422 | 18.33° C | 52% | 1017.3 hPa | 0 mm | - | 402 W/m² | - |
| 1777307119 | 17.78° C | 55% | 1017.4 hPa | 0 mm | - | 408 W/m² | - |
| 1777306816 | 17.78° C | 56% | 1017.5 hPa | 0 mm | - | 540 W/m² | - |
| 1777306514 | 18.33° C | 53% | 1017.9 hPa | 0 mm | - | 297 W/m² | - |
| 1777306209 | 18.33° C | 53% | 1017.9 hPa | 0 mm | - | 546 W/m² | - |
| 1777305905 | 17.78° C | 57% | 1017.9 hPa | 0 mm | - | 545 W/m² | - |
| 1777305601 | 17.22° C | 55% | 1018.1 hPa | 0 mm | - | 505 W/m² | - |
| 1777305297 | 17.22° C | 55% | 1018.2 hPa | 0 mm | - | 452 W/m² | - |
| 1777304996 | 17.22° C | 54% | 1018.4 hPa | 0 mm | - | 547 W/m² | - |
| 1777304692 | 16.67° C | 54% | 1018.2 hPa | 0 mm | - | 461 W/m² | - |
| 1777304389 | 17.22° C | 54% | 1018.2 hPa | 0 mm | - | 439 W/m² | - |
| 1777304087 | 16.67° C | 54% | 1018 hPa | 0 mm | - | 368 W/m² | - |
| 1777303783 | 16.67° C | 51% | 1018.2 hPa | 0 mm | - | 311 W/m² | - |
| 1777303480 | 16.67° C | 53% | 1018 hPa | 0 mm | - | 362 W/m² | - |
| 1777303178 | 16.67° C | 51% | 1017.9 hPa | 0 mm | - | 304 W/m² | - |
| 1777302877 | 16.67° C | 50% | 1017.8 hPa | 0 mm | - | 403 W/m² | - |
| 1777302573 | 16.67° C | 50% | 1018 hPa | 0 mm | - | 404 W/m² | - |
| 1777302272 | 16.67° C | 47% | 1018 hPa | 0 mm | - | 368 W/m² | - |
| 1777301969 | 16.67° C | 48% | 1018.3 hPa | 0 mm | - | 264 W/m² | - |
| 1777301667 | 15.56° C | 49% | 1018.5 hPa | 0 mm | - | 110 W/m² | - |
| 1777301363 | 16.11° C | 48% | 1018.7 hPa | 0 mm | - | 117 W/m² | - |
| 1777301059 | 15.56° C | 53% | 1018.6 hPa | 0 mm | - | 77 W/m² | - |
| 1777300757 | 15° C | 55% | 1018.5 hPa | 0 mm | - | 294 W/m² | - |
| 1777300455 | 15° C | 56% | 1018.8 hPa | 0 mm | - | 239 W/m² | - |
* Rain latest hour (hover to see other rain measurements)
** Current wind speed in m/s (hover to see current wind gust speed)